{"data":{"norad_id":62739,"intl_designator":"2025-014E","name":"STARLINK-32796","alt_names":[],"object_type":"PAYLOAD","status":"ACTIVE","operator":null,"country":"US","launch_date":"2025-01-21","launch_site_code":"AFETR","launch_vehicle":null,"mission":null,"orbit_class":"UNKNOWN","rcs_meters":null,"size_class":null,"mass_kg":null,"dimensions":null,"purposes":["comms"],"wikipedia_slug":null,"has_3d_model":false,"image_url":null,"decayed_at":null,"tle_current":{"epoch":"2026-05-25T04:53:42.791136Z","epoch_age_seconds":67944,"freshness":"FRESH","line1":"1 62739U 25014E   26145.20396749  .00012984  00000+0  48035-3 0  9993","line2":"2 62739  43.0004  81.9002 0001230 266.9612  93.1099 15.27592231 74962","mean_motion":15.27592231,"eccentricity":0.000123,"inclination_deg":43.0004,"raan_deg":81.9002,"arg_perigee_deg":266.9612,"mean_anomaly_deg":93.1099,"bstar":0.00048035,"rev_number":7496,"period_min":94.265993946391,"perigee_km":482.16855088485,"apogee_km":483.85639365503,"semimajor_km":6861.1494722699,"source":"CELESTRAK","updated_at":"2026-05-25T13:38:19.738733Z"}}}